Regional Weather Roundup
Issued by NWS

Home | Current Version | Previous Version | Graphics & Text | Print | Product List | Glossary On
Versions: 1 2 3 4 5 6 7 8 9 10 11 12 13 14 15 16 17 18 19 20 21 22 23 24 25 26 27 28 29 30 31 32 33 34 35 36 37 38 39 40 41 42 43 44 45 46 47 48 49 50
000
ASUS43 KLMK 260810
RWRKY
KENTUCKY REGIONAL WEATHER ROUNDUP
NATIONAL WEATHER SERVICE LOUISVILLE KY
400 AM EDT TUE JUL 26 2016

NOTE "FAIR" INDICATES FEW OR NO CLOUDS BELOW 12,000 FEET
WITH NO SIGNIFICANT WEATHER AND/OR OBSTRUCTIONS TO VISIBILITY.

KYZ001>023-026-027-061>063-070>075-260900-
WESTERN AND SOUTH CENTRAL KENTUCKY

CITY           SKY/WX    TMP DP  RH WIND       PRES   REMARKS
PADUCAH        CLEAR     75  73  93 S3        29.99R
HENDERSON      NOT AVBL
OWENSBORO      CLEAR     74  74 100 CALM      29.99F
HOPKINSVILLE   PTCLDY    74  73  95 CALM      30.00S
BOWLING GREEN  PTCLDY    74  72  93 CALM      30.01S
GLASGOW        CLEAR     73  73 100 CALM      30.01F
$$

KYZ024-025-028>034-038-045-046-053-260900-
NORTH CENTRAL KENTUCKY

CITY           SKY/WX    TMP DP  RH WIND       PRES   REMARKS
LOUISVILLE/SDF PTCLDY    76  73  91 CALM      30.00S
LOUISVILLE/LOU PTCLDY    76  73  91 CALM      30.01R
FORT KNOX      FOG       72  72 100 S2        30.00S VSB 3/4
$$

KYZ035>037-039>044-047>052-055>060-089>105-260900-
NORTHEAST KENTUCKY

CITY           SKY/WX    TMP DP  RH WIND       PRES   REMARKS
LEXINGTON      FOG       73  71  93 S3        30.02F VSB 1/4
COVINGTON      CLOUDY    76  75  97 CALM      30.02S
FRANKFORT      CLEAR     74  71  91 CALM      30.01S
$$

KYZ054-064>069-076>088-106>120-260900-
SOUTHEAST KENTUCKY

CITY           SKY/WX    TMP DP  RH WIND       PRES   REMARKS
JACKSON        CLOUDY    72  71  97 CALM      30.05S FOG
LONDON         CLEAR     71  67  87 CALM      30.06R
SOMERSET       PTCLDY    70  70 100 CALM      30.05S FOG
MIDDLESBORO    CLEAR     70  69  96 CALM      30.07S
MONTICELLO     SUNNY    N/A N/A N/A CALM      30.06S HAZE
$$





USA.gov is the U.S. government's official web portal to all federal, state and local government web resources and services.